| time (UTC) | temp F | wind direction | speed MPH | gust MPH | rain 1hr in | rain 24hr in | rain mn in | humidity % | barometer mb |
| 20260903133246 | 75 | 255 | 2.0 | 4.0 | 0.00 | 0.00 | 0.00 | ||
| 20260903132845 | 76 | 291 | 2.0 | 4.0 | 0.00 | 0.00 | 0.00 | ||
| 20260903132442 | 76 | 276 | 1.0 | 3.0 | 0.00 | 0.00 | 0.00 | ||
| 20260903132040 | 76 | 276 | 2.0 | 4.0 | 0.00 | 0.00 | 0.00 | ||
| 20260903131639 | 74 | 292 | 3.0 | 4.0 | 0.00 | 0.00 | 0.00 | ||
| 20260903131237 | 74 | 324 | 2.0 | 3.0 | 0.00 | 0.00 | 0.00 | ||
| 20260903130828 | 75 | 279 | 4.0 | 5.0 | 0.00 | 0.00 | 0.00 | ||
| 20260903130426 | 75 | 284 | 3.0 | 6.0 | 0.00 | 0.00 | 0.00 | ||
| 20260903130025 | 75 | 314 | 2.0 | 3.0 | 0.00 | 0.00 | 0.00 | ||
| 20260903125624 | 74 | 321 | 2.0 | 5.0 | 0.00 | 0.00 | 0.00 | ||
| 20260903125222 | 73 | 338 | 0.0 | 2.0 | 0.00 | 0.00 | 0.00 | ||
| 20260903124820 | 73 | 335 | 2.0 | 6.0 | 0.00 | 0.00 | 0.00 | ||
| 20260903124418 | 73 | 314 | 2.0 | 4.0 | 0.00 | 0.00 | 0.00 | ||
| 20260903124017 | 73 | 323 | 2.0 | 5.0 | 0.00 | 0.00 | 0.00 | ||
| 20260903123616 | 73 | 310 | 3.0 | 5.0 | 0.00 | 0.00 | 0.00 | ||
| 20260903123213 | 72 | 328 | 2.0 | 4.0 | 0.00 | 0.00 | 0.00 | ||
| 20260903122805 | 72 | 341 | 3.0 | 5.0 | 0.00 | 0.00 | 0.00 | ||
| 20260903122403 | 73 | 315 | 2.0 | 3.0 | 0.00 | 0.00 | 0.00 | ||
| 20260903122002 | 72 | 312 | 2.0 | 3.0 | 0.00 | 0.00 | 0.00 | ||
| 20260903121600 | 72 | 290 | 4.0 | 6.0 | 0.00 | 0.00 | 0.00 | ||
| 20260903121158 | 72 | 300 | 4.0 | 7.0 | 0.00 | 0.00 | 0.00 | ||
| 20260903120757 | 73 | 315 | 3.0 | 6.0 | 0.00 | 0.00 | 0.00 | ||
| 20260903120355 | 73 | 305 | 3.0 | 6.0 | 0.00 | 0.00 | 0.00 | ||
| 20260903115953 | 73 | 301 | 6.0 | 9.0 | 0.00 | 0.00 | 0.00 | ||
| 20260903115552 | 73 | 332 | 3.0 | 4.0 | 0.00 | 0.00 | 0.00 | ||
| 20260903115150 | 73 | 306 | 4.0 | 8.0 | 0.00 | 0.00 | 0.00 | ||
| 20260903114743 | 73 | 322 | 4.0 | 9.0 | 0.00 | 0.00 | 0.00 | ||
| 20260903114341 | 73 | 303 | 7.0 | 9.0 | 0.00 | 0.00 | 0.00 | ||
| 20260903113939 | 74 | 295 | 7.0 | 12.0 | 0.00 | 0.00 | 0.00 | ||
| 20260903112734 | 76 | 278 | 6.0 | 9.0 | 0.00 | 0.00 | 0.00 | ||
| 20260903112331 | 77 | 268 | 7.0 | 10.0 | 0.00 | 0.00 | 0.00 | ||
| 20260903111930 | 78 | 261 | 7.0 | 10.0 | 0.00 | 0.00 | 0.00 | ||
| 20260903111529 | 78 | 244 | 9.0 | 11.0 | 0.00 | 0.00 | 0.00 | ||
| 20260903111127 | 78 | 209 | 9.0 | 14.0 | 0.00 | 0.00 | 0.00 | ||
| 20260903110718 | 77 | 232 | 8.0 | 14.0 | 0.00 | 0.00 | 0.00 | ||
| 20260903110316 | 76 | 260 | 5.0 | 7.0 | 0.00 | 0.00 | 0.00 | ||
| 20260903105915 | 77 | 228 | 6.0 | 9.0 | 0.00 | 0.00 | 0.00 | ||
| 20260903105514 | 77 | 252 | 7.0 | 10.0 | 0.00 | 0.00 | 0.00 | ||
| 20260903105111 | 77 | 213 | 7.0 | 14.0 | 0.00 | 0.00 | 0.00 | ||
| 20260903104710 | 77 | 232 | 3.0 | 7.0 | 0.00 | 0.00 | 0.00 | ||
| 20260903104308 | 75 | 188 | 4.0 | 8.0 | 0.00 | 0.00 | 0.00 | ||
| 20260903103506 | 77 | 216 | 4.0 | 6.0 | 0.00 | 0.00 | 0.00 | ||
| 20260903103103 | 78 | 224 | 3.0 | 5.0 | 0.00 | 0.00 | 0.00 | ||
| 20260903102655 | 76 | 199 | 4.0 | 9.0 | 0.00 | 0.00 | 0.00 | ||
| 20260903102254 | 76 | 231 | 2.0 | 5.0 | 0.00 | 0.00 | 0.00 | ||
| 20260903101853 | 75 | 228 | 3.0 | 5.0 | 0.00 | 0.00 | 0.00 | ||
| 20260903101450 | 75 | 217 | 5.0 | 9.0 | 0.00 | 0.00 | 0.00 | ||
| 20260903101049 | 76 | 213 | 6.0 | 9.0 | 0.00 | 0.00 | 0.00 | ||
| 20260903100648 | 75 | 230 | 4.0 | 6.0 | 0.00 | 0.00 | 0.00 | ||
| 20260903095844 | 76 | 260 | 3.0 | 7.0 | 0.00 | 0.00 | 0.00 | ||
| 20260903095443 | 75 | 237 | 3.0 | 8.0 | 0.00 | 0.00 | 0.00 | ||
| 20260903095041 | 75 | 202 | 3.0 | 6.0 | 0.00 | 0.00 | 0.00 | ||
| 20260903094633 | 75 | 263 | 4.0 | 6.0 | 0.00 | 0.00 | 0.00 | ||
| 20260903094230 | 74 | 315 | 1.0 | 3.0 | 0.00 | 0.00 | 0.00 | ||
| 20260903093829 | 74 | 311 | 2.0 | 5.0 | 0.00 | 0.00 | 0.00 | ||
| 20260903093428 | 75 | 264 | 3.0 | 6.0 | 0.00 | 0.00 | 0.00 | ||
| 20260903093026 | 75 | 263 | 4.0 | 6.0 | 0.00 | 0.00 | 0.00 | ||
| 20260903092625 | 74 | 263 | 4.0 | 7.0 | 0.00 | 0.00 | 0.00 | ||
| 20260903092222 | 74 | 267 | 6.0 | 9.0 | 0.00 | 0.00 | 0.00 | ||
| 20260903091821 | 73 | 275 | 4.0 | 6.0 | 0.00 | 0.00 | 0.00 | ||
| 20260903091420 | 74 | 270 | 2.0 | 6.0 | 0.00 | 0.00 | 0.00 | ||
| 20260903091019 | 74 | 263 | 3.0 | 5.0 | 0.00 | 0.00 | 0.00 | ||
| 20260903090609 | 74 | 254 | 3.0 | 8.0 | 0.00 | 0.00 | 0.00 | ||
| 20260903090207 | 73 | 260 | 6.0 | 9.0 | 0.00 | 0.00 | 0.00 | ||
| 20260903085806 | 74 | 220 | 7.0 | 10.0 | 0.00 | 0.00 | 0.00 | ||
| 20260903085405 | 74 | 217 | 5.0 | 8.0 | 0.00 | 0.00 | 0.00 | ||
| 20260903085002 | 73 | 238 | 4.0 | 8.0 | 0.00 | 0.00 | 0.00 | ||
| 20260903084601 | 74 | 221 | 5.0 | 9.0 | 0.00 | 0.00 | 0.00 | ||
| 20260903084200 | 74 | 220 | 3.0 | 4.0 | 0.00 | 0.00 | 0.00 | ||
| 20260903083759 | 74 | 183 | 2.0 | 4.0 | 0.00 | 0.00 | 0.00 | ||
| 20260903083357 | 74 | 195 | 3.0 | 6.0 | 0.00 | 0.00 | 0.00 | ||
| 20260903082955 | 73 | 218 | 4.0 | 6.0 | 0.00 | 0.00 | 0.00 | ||
| 20260903082547 | 73 | 206 | 4.0 | 6.0 | 0.00 | 0.00 | 0.00 | ||
| 20260903082145 | 74 | 202 | 2.0 | 4.0 | 0.00 | 0.00 | 0.00 | ||
| 20260903081744 | 73 | 217 | 2.0 | 5.0 | 0.00 | 0.00 | 0.00 | ||
| 20260903081342 | 73 | 194 | 2.0 | 5.0 | 0.00 | 0.00 | 0.00 | ||
| 20260903080940 | 72 | 157 | 2.0 | 5.0 | 0.00 | 0.00 | 0.00 | ||
| 20260903080539 | 72 | 157 | 1.0 | 3.0 | 0.00 | 0.00 | 0.00 | ||
| 20260903080137 | 72 | 157 | 2.0 | 4.0 | 0.00 | 0.00 | 0.00 | ||
| 20260903075735 | 73 | 157 | 1.0 | 2.0 | 0.00 | 0.00 | 0.00 | ||
| 20260903075334 | 73 | 157 | 2.0 | 4.0 | 0.00 | 0.00 | 0.00 | ||
| 20260903074932 | 72 | 157 | 3.0 | 4.0 | 0.00 | 0.00 | 0.00 | ||
| 20260903074524 | 73 | 157 | 2.0 | 3.0 | 0.00 | 0.00 | 0.00 | ||
| 20260903074121 | 72 | 157 | 2.0 | 4.0 | 0.00 | 0.00 | 0.00 | ||
| 20260903073720 | 72 | 128 | 3.0 | 4.0 | 0.00 | 0.00 | 0.00 | ||
| 20260903073319 | 72 | 135 | 3.0 | 5.0 | 0.00 | 0.00 | 0.00 | ||
| 20260903072917 | 72 | 135 | 3.0 | 6.0 | 0.00 | 0.00 | 0.00 | ||
| 20260903072515 | 71 | 135 | 2.0 | 4.0 | 0.00 | 0.00 | 0.00 | ||
| 20260903072113 | 71 | 144 | 2.0 | 4.0 | 0.00 | 0.00 | 0.00 | ||
| 20260903071712 | 71 | 158 | 2.0 | 4.0 | 0.00 | 0.00 | 0.00 | ||
| 20260903071311 | 71 | 170 | 4.0 | 6.0 | 0.00 | 0.00 | 0.00 | ||
| 20260903070500 | 70 | 132 | 4.0 | 6.0 | 0.00 | 0.00 | 0.00 | ||
| 20260903070058 | 70 | 135 | 2.0 | 4.0 | 0.00 | 0.00 | 0.00 | ||
| 20260903065657 | 70 | 135 | 4.0 | 6.0 | 0.00 | 0.00 | 0.00 | ||
| 20260903065256 | 70 | 129 | 3.0 | 6.0 | 0.00 | 0.00 | 0.00 | ||
| 20260903064853 | 71 | 132 | 5.0 | 8.0 | 0.00 | 0.00 | 0.00 | ||
| 20260903064452 | 71 | 135 | 6.0 | 9.0 | 0.00 | 0.00 | 0.00 | ||
| 20260903064050 | 71 | 139 | 6.0 | 8.0 | 0.00 | 0.00 | 0.00 | ||
| 20260903063247 | 70 | 149 | 4.0 | 8.0 | 0.00 | 0.00 | 0.00 | ||
| 20260903062845 | 68 | 146 | 6.0 | 9.0 | 0.00 | 0.00 | 0.00 | ||
| 20260903062437 | 69 | 137 | 5.0 | 9.0 | 0.00 | 0.00 | 0.00 | ||
| 20260903062035 | 69 | 129 | 3.0 | 6.0 | 0.00 | 0.00 | 0.00 | ||
| 20260903061633 | 68 | 134 | 4.0 | 6.0 | 0.00 | 0.00 | 0.00 | ||
| 20260903061232 | 68 | 139 | 5.0 | 8.0 | 0.00 | 0.00 | 0.00 | ||
| 20260903060830 | 68 | 152 | 5.0 | 7.0 | 0.00 | 0.00 | 0.00 | ||
| 20260903060429 | 68 | 140 | 3.0 | 5.0 | 0.00 | 0.00 | 0.00 | ||
| 20260903060028 | 67 | 146 | 4.0 | 7.0 | 0.00 | 0.00 | 0.00 | ||
| 20260903055625 | 65 | 133 | 3.0 | 5.0 | 0.00 | 0.00 | 0.00 | ||
| 20260903055224 | 66 | 131 | 3.0 | 5.0 | 0.00 | 0.00 | 0.00 | ||
| 20260903054823 | 66 | 141 | 4.0 | 8.0 | 0.00 | 0.00 | 0.00 | ||
| 20260903054702 | 66 | 154 | 4.0 | 8.0 | 0.00 | 0.00 | 0.00 | ||
| 20260903054415 | 66 | 154 | 4.0 | 8.0 | 0.00 | 0.00 | 0.00 | ||
| 20260903054012 | 66 | 157 | 4.0 | 6.0 | 0.00 | 0.00 | 0.00 | ||
| 20260903053611 | 66 | 148 | 5.0 | 8.0 | 0.00 | 0.00 | 0.00 | ||
| 20260903053210 | 66 | 134 | 4.0 | 6.0 | 0.00 | 0.00 | 0.00 | ||
| 20260903052808 | 65 | 131 | 3.0 | 6.0 | 0.00 | 0.00 | 0.00 | ||
| 20260903052406 | 65 | 139 | 1.0 | 4.0 | 0.00 | 0.00 | 0.00 | ||
| 20260903052004 | 64 | 157 | 3.0 | 5.0 | 0.00 | 0.00 | 0.00 | ||
| 20260903051602 | 63 | 139 | 2.0 | 5.0 | 0.00 | 0.00 | 0.00 | ||
| 20260903051201 | 63 | 135 | 3.0 | 6.0 | 0.00 | 0.00 | 0.00 | ||
| 20260903050758 | 64 | 154 | 3.0 | 6.0 | 0.00 | 0.00 | 0.00 | ||
| 20260903050350 | 63 | 141 | 3.0 | 5.0 | 0.00 | 0.00 | 0.00 | ||
| 20260903045949 | 64 | 143 | 3.0 | 6.0 | 0.00 | 0.00 | 0.00 | ||
| 20260903045548 | 63 | 133 | 3.0 | 7.0 | 0.00 | 0.00 | 0.00 | ||
| 20260903045147 | 64 | 137 | 3.0 | 6.0 | 0.00 | 0.00 | 0.00 | ||
| 20260903044744 | 63 | 143 | 4.0 | 5.0 | 0.00 | 0.00 | 0.00 | ||
| 20260903044343 | 62 | 148 | 3.0 | 7.0 | 0.00 | 0.00 | 0.00 | ||
| 20260903043941 | 62 | 157 | 4.0 | 6.0 | 0.00 | 0.00 | 0.00 | ||
| 20260903043540 | 61 | 147 | 3.0 | 5.0 | 0.00 | 0.00 | 0.00 | ||
| 20260903043137 | 61 | 135 | 2.0 | 3.0 | 0.00 | 0.00 | 0.00 | ||
| 20260903042736 | 61 | 135 | 2.0 | 4.0 | 0.00 | 0.00 | 0.00 | ||
| 20260903042328 | 61 | 135 | 2.0 | 5.0 | 0.00 | 0.00 | 0.00 | ||
| 20260903041926 | 59 | 111 | 0.0 | 1.0 | 0.00 | 0.00 | 0.00 | ||
| 20260903041524 | 59 | 111 | 1.0 | 2.0 | 0.00 | 0.00 | 0.00 | ||
| 20260903041123 | 60 | 111 | 2.0 | 3.0 | 0.00 | 0.00 | 0.00 | ||
| 20260903040721 | 59 | 111 | 1.0 | 2.0 | 0.00 | 0.00 | 0.00 | ||
| 20260903040320 | 60 | 111 | 1.0 | 2.0 | 0.00 | 0.00 | 0.00 | ||
| 20260903035917 | 62 | 129 | 2.0 | 3.0 | 0.00 | 0.00 | 0.00 | ||
| 20260903035516 | 61 | 135 | 1.0 | 3.0 | 0.00 | 0.00 | 0.00 | ||
| 20260903035115 | 62 | 135 | 3.0 | 5.0 | 0.00 | 0.00 | 0.00 | ||
| 20260903034713 | 61 | 151 | 4.0 | 5.0 | 0.00 | 0.00 | 0.00 | ||
| 20260903034305 | 61 | 135 | 2.0 | 3.0 | 0.00 | 0.00 | 0.00 | ||
| 20260903033902 | 63 | 136 | 3.0 | 5.0 | 0.00 | 0.00 | 0.00 | ||
| 20260903033501 | 62 | 145 | 4.0 | 5.0 | 0.00 | 0.00 | 0.00 | ||
| 20260903033100 | 62 | 153 | 3.0 | 6.0 | 0.00 | 0.00 | 0.00 | ||
| 20260903032658 | 61 | 148 | 2.0 | 4.0 | 0.00 | 0.00 | 0.00 | ||
| 20260903032256 | 63 | 140 | 3.0 | 6.0 | 0.00 | 0.00 | 0.00 | ||
| 20260903031854 | 62 | 132 | 2.0 | 4.0 | 0.00 | 0.00 | 0.00 | ||
| 20260903031453 | 62 | 136 | 4.0 | 6.0 | 0.00 | 0.00 | 0.00 | ||
| 20260903031052 | 63 | 136 | 4.0 | 7.0 | 0.00 | 0.00 | 0.00 | ||
| 20260903030649 | 63 | 152 | 5.0 | 7.0 | 0.00 | 0.00 | 0.00 | ||
| 20260903030241 | 62 | 135 | 2.0 | 4.0 | 0.00 | 0.00 | 0.00 | ||
| 20260903025839 | 61 | 151 | 2.0 | 3.0 | 0.00 | 0.00 | 0.00 | ||
| 20260903025438 | 61 | 157 | 3.0 | 5.0 | 0.00 | 0.00 | 0.00 | ||
| 20260903025036 | 62 | 157 | 2.0 | 4.0 | 0.00 | 0.00 | 0.00 | ||
| 20260903024635 | 63 | 141 | 3.0 | 5.0 | 0.00 | 0.00 | 0.00 | ||
| 20260903024234 | 63 | 152 | 3.0 | 5.0 | 0.00 | 0.00 | 0.00 | ||
| 20260903023832 | 64 | 143 | 4.0 | 6.0 | 0.00 | 0.00 | 0.00 | ||
| 20260903023431 | 62 | 152 | 4.0 | 9.0 | 0.00 | 0.00 | 0.00 | ||
| 20260903023029 | 62 | 151 | 3.0 | 6.0 | 0.00 | 0.00 | 0.00 | ||
| 20260903022627 | 61 | 135 | 2.0 | 4.0 | 0.00 | 0.00 | 0.00 | ||
| 20260903022219 | 61 | 135 | 2.0 | 4.0 | 0.00 | 0.00 | 0.00 | ||
| 20260903021817 | 61 | 135 | 1.0 | 3.0 | 0.00 | 0.00 | 0.00 | ||
| 20260903021415 | 62 | 135 | 1.0 | 2.0 | 0.00 | 0.00 | 0.00 | ||
| 20260903020612 | 63 | 111 | 2.0 | 3.0 | 0.00 | 0.00 | 0.00 | ||
| 20260903020211 | 62 | 111 | 3.0 | 3.0 | 0.00 | 0.00 | 0.00 | ||
| 20260903015808 | 62 | 135 | 2.0 | 4.0 | 0.00 | 0.00 | 0.00 | ||
| 20260903015407 | 62 | 139 | 3.0 | 5.0 | 0.00 | 0.00 | 0.00 | ||
| 20260903015006 | 62 | 135 | 2.0 | 2.0 | 0.00 | 0.00 | 0.00 | ||
| 20260903014604 | 61 | 151 | 2.0 | 3.0 | 0.00 | 0.00 | 0.00 | ||
| 20260903014155 | 62 | 180 | 1.0 | 3.0 | 0.00 | 0.00 | 0.00 | ||
| 20260903013753 | 63 | 180 | 2.0 | 3.0 | 0.00 | 0.00 | 0.00 | ||
| 20260903013352 | 64 | 180 | 3.0 | 4.0 | 0.00 | 0.00 | 0.00 | ||
| 20260903012951 | 63 | 180 | 2.0 | 4.0 | 0.00 | 0.00 | 0.00 | ||
| 20260903012549 | 64 | 182 | 3.0 | 4.0 | 0.00 | 0.00 | 0.00 | ||
| 20260903012147 | 64 | 217 | 2.0 | 4.0 | 0.00 | 0.00 | 0.00 | ||
| 20260903011745 | 65 | 180 | 4.0 | 7.0 | 0.00 | 0.00 | 0.00 | ||
| 20260903010943 | 65 | 150 | 2.0 | 4.0 | 0.00 | 0.00 | 0.00 | ||
| 20260903010540 | 63 | 140 | 2.0 | 4.0 | 0.00 | 0.00 | 0.00 | ||
| 20260903010132 | 63 | 170 | 2.0 | 4.0 | 0.00 | 0.00 | 0.00 | ||
| 20260903005730 | 64 | 180 | 2.0 | 4.0 | 0.00 | 0.00 | 0.00 | ||
| 20260903005329 | 65 | 180 | 1.0 | 2.0 | 0.00 | 0.00 | 0.00 | ||
| 20260903004927 | 64 | 157 | 1.0 | 2.0 | 0.00 | 0.00 | 0.00 | ||
| 20260903004525 | 63 | 157 | 1.0 | 4.0 | 0.00 | 0.00 | 0.00 | ||
| 20260903004124 | 65 | 158 | 3.0 | 4.0 | 0.00 | 0.00 | 0.00 | ||
| 20260903003723 | 66 | 209 | 2.0 | 3.0 | 0.00 | 0.00 | 0.00 | ||
| 20260903003320 | 64 | 225 | 1.0 | 3.0 | 0.00 | 0.00 | 0.00 | ||
| 20260903002919 | 65 | 248 | 1.0 | 3.0 | 0.00 | 0.00 | 0.00 | ||
| 20260903002518 | 63 | 262 | 3.0 | 4.0 | 0.00 | 0.00 | 0.00 | ||
| 20260903002110 | 63 | 288 | 1.0 | 3.0 | 0.00 | 0.00 | 0.00 | ||
| 20260903001708 | 60 | 292 | 1.0 | 2.0 | 0.00 | 0.00 | 0.00 | ||
| 20260903001305 | 60 | 292 | 1.0 | 2.0 | 0.00 | 0.00 | 0.00 | ||
| 20260903000904 | 61 | 288 | 3.0 | 5.0 | 0.00 | 0.00 | 0.00 | ||
| 20260903000502 | 61 | 180 | 1.0 | 3.0 | 0.00 | 0.00 | 0.00 | ||
| 20260902235658 | 62 | 180 | 1.0 | 2.0 | 0.00 | 0.00 | 0.00 | ||
| 20260902235257 | 62 | 180 | 1.0 | 4.0 | 0.00 | 0.00 | 0.00 | ||
| 20260902234856 | 64 | 157 | 2.0 | 4.0 | 0.00 | 0.00 | 0.00 | ||
| 20260902234454 | 65 | 157 | 3.0 | 5.0 | 0.00 | 0.00 | 0.00 | ||
| 20260902234045 | 65 | 152 | 3.0 | 6.0 | 0.00 | 0.00 | 0.00 | ||
| 20260902233643 | 65 | 138 | 3.0 | 4.0 | 0.00 | 0.00 | 0.00 | ||
| 20260902233242 | 65 | 146 | 3.0 | 5.0 | 0.00 | 0.00 | 0.00 | ||
| 20260902232841 | 65 | 153 | 4.0 | 7.0 | 0.00 | 0.00 | 0.00 | ||
| 20260902232438 | 66 | 150 | 5.0 | 8.0 | 0.00 | 0.00 | 0.00 | ||
| 20260902232038 | 65 | 148 | 4.0 | 8.0 | 0.00 | 0.00 | 0.00 | ||
| 20260902231635 | 65 | 133 | 4.0 | 7.0 | 0.00 | 0.00 | 0.00 | ||
| 20260902231234 | 65 | 150 | 5.0 | 8.0 | 0.00 | 0.00 | 0.00 | ||
| 20260902230833 | 65 | 148 | 4.0 | 6.0 | 0.00 | 0.00 | 0.00 | ||
| 20260902230022 | 65 | 151 | 4.0 | 7.0 | 0.00 | 0.00 | 0.00 | ||
| 20260902225620 | 64 | 157 | 3.0 | 4.0 | 0.00 | 0.00 | 0.00 | ||
| 20260902225219 | 64 | 157 | 3.0 | 4.0 | 0.00 | 0.00 | 0.00 | ||
| 20260902224816 | 64 | 154 | 4.0 | 5.0 | 0.00 | 0.00 | 0.00 | ||
| 20260902224415 | 65 | 157 | 3.0 | 5.0 | 0.00 | 0.00 | 0.00 | ||
| 20260902224013 | 65 | 148 | 3.0 | 4.0 | 0.00 | 0.00 | 0.00 | ||
| 20260902223612 | 65 | 152 | 4.0 | 7.0 | 0.00 | 0.00 | 0.00 | ||
| 20260902223209 | 66 | 152 | 5.0 | 8.0 | 0.00 | 0.00 | 0.00 | ||
| 20260902222809 | 64 | 147 | 4.0 | 6.0 | 0.00 | 0.00 | 0.00 | ||
| 20260902222406 | 64 | 142 | 4.0 | 6.0 | 0.00 | 0.00 | 0.00 | ||
| 20260902221958 | 65 | 154 | 3.0 | 5.0 | 0.00 | 0.00 | 0.00 | ||
| 20260902221555 | 65 | 143 | 5.0 | 7.0 | 0.00 | 0.00 | 0.00 | ||
| 20260902221154 | 66 | 148 | 5.0 | 10.0 | 0.00 | 0.00 | 0.00 | ||
| 20260902220753 | 64 | 154 | 4.0 | 6.0 | 0.00 | 0.00 | 0.00 | ||
| 20260902220352 | 62 | 157 | 2.0 | 4.0 | 0.00 | 0.00 | 0.00 | ||
| 20260902215951 | 64 | 157 | 3.0 | 5.0 | 0.00 | 0.00 | 0.00 | ||
| 20260902215548 | 64 | 141 | 3.0 | 5.0 | 0.00 | 0.00 | 0.00 | ||
| 20260902215147 | 65 | 137 | 4.0 | 5.0 | 0.00 | 0.00 | 0.00 | ||
| 20260902214746 | 66 | 151 | 4.0 | 7.0 | 0.00 | 0.00 | 0.00 | ||
| 20260902214344 | 66 | 152 | 5.0 | 8.0 | 0.00 | 0.00 | 0.00 | ||
| 20260902213935 | 66 | 156 | 4.0 | 6.0 | 0.00 | 0.00 | 0.00 | ||
| 20260902213533 | 66 | 163 | 6.0 | 8.0 | 0.00 | 0.00 | 0.00 | ||
| 20260902213132 | 65 | 157 | 3.0 | 4.0 | 0.00 | 0.00 | 0.00 | ||
| 20260902212731 | 66 | 166 | 3.0 | 5.0 | 0.00 | 0.00 | 0.00 | ||
| 20260902212328 | 66 | 178 | 3.0 | 5.0 | 0.00 | 0.00 | 0.00 | ||
| 20260902211927 | 65 | 180 | 3.0 | 6.0 | 0.00 | 0.00 | 0.00 | ||
| 20260902211525 | 66 | 157 | 3.0 | 5.0 | 0.00 | 0.00 | 0.00 | ||
| 20260902211124 | 66 | 157 | 4.0 | 7.0 | 0.00 | 0.00 | 0.00 | ||
| 20260902210722 | 66 | 157 | 3.0 | 4.0 | 0.00 | 0.00 | 0.00 | ||
| 20260902210320 | 66 | 157 | 3.0 | 4.0 | 0.00 | 0.00 | 0.00 | ||
| 20260902205912 | 66 | 157 | 3.0 | 4.0 | 0.00 | 0.00 | 0.00 | ||
| 20260902205510 | 66 | 157 | 2.0 | 5.0 | 0.00 | 0.00 | 0.00 | ||
| 20260902205109 | 67 | 157 | 4.0 | 7.0 | 0.00 | 0.00 | 0.00 | ||
| 20260902204707 | 66 | 156 | 3.0 | 6.0 | 0.00 | 0.00 | 0.00 | ||
| 20260902204305 | 66 | 135 | 1.0 | 2.0 | 0.00 | 0.00 | 0.00 | ||
| 20260902203904 | 66 | 135 | 2.0 | 4.0 | 0.00 | 0.00 | 0.00 | ||
| 20260902203503 | 66 | 146 | 2.0 | 4.0 | 0.00 | 0.00 | 0.00 | ||
| 20260902203101 | 67 | 140 | 2.0 | 4.0 | 0.00 | 0.00 | 0.00 | ||
| 20260902202700 | 67 | 150 | 2.0 | 4.0 | 0.00 | 0.00 | 0.00 | ||
| 20260902202258 | 66 | 157 | 2.0 | 4.0 | 0.00 | 0.00 | 0.00 | ||
| 20260902201850 | 66 | 157 | 1.0 | 3.0 | 0.00 | 0.00 | 0.00 | ||
| 20260902201046 | 67 | 135 | 2.0 | 5.0 | 0.00 | 0.00 | 0.00 | ||
| 20260902200243 | 67 | 135 | 2.0 | 4.0 | 0.00 | 0.00 | 0.00 | ||
| 20260902195841 | 68 | 157 | 4.0 | 6.0 | 0.00 | 0.00 | 0.00 | ||
| 20260902195439 | 68 | 144 | 5.0 | 8.0 | 0.00 | 0.00 | 0.00 | ||
| 20260902195038 | 68 | 136 | 2.0 | 5.0 | 0.00 | 0.00 | 0.00 | ||
| 20260902194637 | 67 | 129 | 2.0 | 2.0 | 0.00 | 0.00 | 0.00 | ||
| 20260902194235 | 67 | 69 | 2.0 | 2.0 | 0.00 | 0.00 | 0.00 | ||
| 20260902193826 | 67 | 21 | 2.0 | 3.0 | 0.00 | 0.00 | 0.00 | ||
| 20260902193424 | 67 | 21 | 1.0 | 2.0 | 0.00 | 0.00 | 0.00 | ||
| 20260902193023 | 67 | 21 | 0.0 | 2.0 | 0.00 | 0.00 | 0.00 | ||
| 20260902192622 | 67 | 21 | 0.0 | 0.0 | 0.00 | 0.00 | 0.00 | ||
| 20260902192219 | 67 | 21 | 0.0 | 0.0 | 0.00 | 0.00 | 0.00 | ||
| 20260902191818 | 68 | 21 | 0.0 | 0.0 | 0.00 | 0.00 | 0.00 | ||
| 20260902191417 | 67 | 21 | 0.0 | 0.0 | 0.00 | 0.00 | 0.00 | ||
| 20260902191016 | 68 | 21 | 0.0 | 2.0 | 0.00 | 0.00 | 0.00 | ||
| 20260902190613 | 68 | 21 | 1.0 | 2.0 | 0.00 | 0.00 | 0.00 | ||
| 20260902190212 | 68 | 21 | 0.0 | 2.0 | 0.00 | 0.00 | 0.00 | ||
| 20260902185804 | 68 | 21 | 1.0 | 1.0 | 0.00 | 0.00 | 0.00 | ||
| 20260902185402 | 68 | 21 | 1.0 | 2.0 | 0.00 | 0.00 | 0.00 | ||
| 20260902185000 | 67 | 21 | 0.0 | 2.0 | 0.00 | 0.00 | 0.00 | ||
| 20260902184559 | 69 | 21 | 2.0 | 3.0 | 0.00 | 0.00 | 0.00 | ||
| 20260902184157 | 69 | 21 | 0.0 | 2.0 | 0.00 | 0.00 | 0.00 | ||
| 20260902183756 | 69 | 21 | 0.0 | 1.0 | 0.00 | 0.00 | 0.00 | ||
| 20260902183354 | 69 | 21 | 0.0 | 0.0 | 0.00 | 0.00 | 0.00 | ||
| 20260902182952 | 69 | 21 | 1.0 | 2.0 | 0.00 | 0.00 | 0.00 | ||
| 20260902182551 | 69 | 0 | 1.0 | 2.0 | 0.00 | 0.00 | 0.00 | ||
| 20260902182149 | 69 | 0 | 0.0 | 1.0 | 0.00 | 0.00 | 0.00 | ||
| 20260902181741 | 69 | 345 | 1.0 | 1.0 | 0.00 | 0.00 | 0.00 | ||
| 20260902181338 | 70 | 338 | 0.0 | 0.0 | 0.00 | 0.00 | 0.00 | ||
| 20260902180937 | 71 | 338 | 0.0 | 1.0 | 0.00 | 0.00 | 0.00 | ||
| 20260902180536 | 70 | 338 | 1.0 | 2.0 | 0.00 | 0.00 | 0.00 | ||
| 20260902180134 | 70 | 338 | 1.0 | 2.0 | 0.00 | 0.00 | 0.00 | ||
| 20260902175732 | 70 | 21 | 1.0 | 2.0 | 0.00 | 0.00 | 0.00 | ||
| 20260902175330 | 71 | 21 | 0.0 | 2.0 | 0.00 | 0.00 | 0.00 | ||
| 20260902174929 | 71 | 21 | 0.0 | 2.0 | 0.00 | 0.00 | 0.00 | ||
| 20260902174528 | 71 | 21 | 1.0 | 2.0 | 0.00 | 0.00 | 0.00 | ||
| 20260902174125 | 71 | 20 | 3.0 | 4.0 | 0.00 | 0.00 | 0.00 | ||
| 20260902173717 | 71 | 21 | 2.0 | 3.0 | 0.00 | 0.00 | 0.00 | ||
| 20260902173316 | 72 | 21 | 2.0 | 4.0 | 0.00 | 0.00 | 0.00 | ||
| 20260902172915 | 72 | 21 | 2.0 | 4.0 | 0.00 | 0.00 | 0.00 | ||
| 20260902172514 | 72 | 21 | 3.0 | 4.0 | 0.00 | 0.00 | 0.00 | ||
| 20260902172111 | 72 | 21 | 4.0 | 5.0 | 0.00 | 0.00 | 0.00 | ||
| 20260902171710 | 72 | 21 | 3.0 | 5.0 | 0.00 | 0.00 | 0.00 | ||
| 20260902171308 | 73 | 21 | 3.0 | 5.0 | 0.00 | 0.00 | 0.00 | ||
| 20260902170907 | 73 | 346 | 3.0 | 5.0 | 0.00 | 0.00 | 0.00 | ||
| 20260902170505 | 73 | 338 | 2.0 | 4.0 | 0.00 | 0.00 | 0.00 | ||
| 20260902170103 | 74 | 338 | 1.0 | 2.0 | 0.00 | 0.00 | 0.00 | ||
| 20260902165655 | 74 | 338 | 1.0 | 2.0 | 0.00 | 0.00 | 0.00 | ||
| 20260902165253 | 74 | 338 | 1.0 | 3.0 | 0.00 | 0.00 | 0.00 | ||
| 20260902164851 | 75 | 338 | 1.0 | 2.0 | 0.00 | 0.00 | 0.00 | ||
| 20260902164450 | 75 | 338 | 2.0 | 4.0 | 0.00 | 0.00 | 0.00 | ||
| 20260902164048 | 75 | 338 | 1.0 | 3.0 | 0.00 | 0.00 | 0.00 | ||
| 20260902163647 | 75 | 338 | 1.0 | 2.0 | 0.00 | 0.00 | 0.00 | ||
| 20260902163244 | 76 | 338 | 2.0 | 3.0 | 0.00 | 0.00 | 0.00 | ||
| 20260902162843 | 76 | 338 | 1.0 | 3.0 | 0.00 | 0.00 | 0.00 | ||
| 20260902162442 | 76 | 338 | 0.0 | 1.0 | 0.00 | 0.00 | 0.00 | ||
| 20260902162040 | 77 | 338 | 0.0 | 1.0 | 0.00 | 0.00 | 0.00 | ||
| 20260902161632 | 76 | 315 | 0.0 | 0.0 | 0.00 | 0.00 | 0.00 | ||
| 20260902161229 | 76 | 315 | 0.0 | 0.0 | 0.00 | 0.00 | 0.00 | ||
| 20260902160828 | 77 | 315 | 0.0 | 3.0 | 0.00 | 0.00 | 0.00 | ||
| 20260902160427 | 77 | 315 | 0.0 | 1.0 | 0.00 | 0.00 | 0.00 | ||
| 20260902160025 | 77 | 314 | 1.0 | 3.0 | 0.00 | 0.00 | 0.00 | ||
| 20260902155623 | 77 | 292 | 2.0 | 4.0 | 0.00 | 0.00 | 0.00 | ||
| 20260902155221 | 77 | 302 | 2.0 | 4.0 | 0.00 | 0.00 | 0.00 | ||
| 20260902154820 | 78 | 315 | 2.0 | 4.0 | 0.00 | 0.00 | 0.00 | ||
| 20260902154419 | 77 | 315 | 1.0 | 3.0 | 0.00 | 0.00 | 0.00 | ||
| 20260902154016 | 77 | 311 | 2.0 | 4.0 | 0.00 | 0.00 | 0.00 | ||
| 20260902153608 | 77 | 292 | 1.0 | 2.0 | 0.00 | 0.00 | 0.00 | ||
| 20260902153206 | 77 | 292 | 2.0 | 4.0 | 0.00 | 0.00 | 0.00 | ||
| 20260902152804 | 78 | 292 | 2.0 | 4.0 | 0.00 | 0.00 | 0.00 | ||
| 20260902152402 | 78 | 305 | 1.0 | 5.0 | 0.00 | 0.00 | 0.00 | ||
| 20260902152000 | 78 | 292 | 2.0 | 4.0 | 0.00 | 0.00 | 0.00 | ||
| 20260902151559 | 78 | 296 | 2.0 | 6.0 | 0.00 | 0.00 | 0.00 | ||
| 20260902151157 | 78 | 282 | 2.0 | 3.0 | 0.00 | 0.00 | 0.00 | ||
| 20260902150756 | 79 | 313 | 3.0 | 6.0 | 0.00 | 0.00 | 0.00 | ||
| 20260902150354 | 79 | 309 | 1.0 | 4.0 | 0.00 | 0.00 | 0.00 | ||
| 20260902145952 | 78 | 341 | 3.0 | 8.0 | 0.00 | 0.00 | 0.00 | ||
| 20260902145544 | 79 | 300 | 6.0 | 12.0 | 0.00 | 0.00 | 0.00 | ||
| 20260902145142 | 79 | 241 | 5.0 | 10.0 | 0.00 | 0.00 | 0.00 | ||
| 20260902144740 | 79 | 240 | 6.0 | 9.0 | 0.00 | 0.00 | 0.00 | ||
| 20260902143937 | 79 | 249 | 4.0 | 8.0 | 0.00 | 0.00 | 0.00 | ||
| 20260902143536 | 79 | 220 | 4.0 | 8.0 | 0.00 | 0.00 | 0.00 | ||
| 20260902143133 | 80 | 210 | 6.0 | 9.0 | 0.00 | 0.00 | 0.00 | ||
| 20260902142732 | 79 | 250 | 5.0 | 8.0 | 0.00 | 0.00 | 0.00 | ||
| 20260902142331 | 79 | 257 | 5.0 | 8.0 | 0.00 | 0.00 | 0.00 | ||
| 20260902141929 | 79 | 253 | 8.0 | 10.0 | 0.00 | 0.00 | 0.00 | ||
| 20260902141520 | 79 | 222 | 7.0 | 11.0 | 0.00 | 0.00 | 0.00 | ||
| 20260902141118 | 79 | 254 | 5.0 | 7.0 | 0.00 | 0.00 | 0.00 | ||
| 20260902140717 | 79 | 249 | 4.0 | 5.0 | 0.00 | 0.00 | 0.00 | ||
| 20260902140316 | 79 | 275 | 6.0 | 10.0 | 0.00 | 0.00 | 0.00 | ||
| 20260902135915 | 79 | 281 | 7.0 | 11.0 | 0.00 | 0.00 | 0.00 | ||
| 20260902135513 | 79 | 277 | 5.0 | 7.0 | 0.00 | 0.00 | 0.00 | ||
| 20260902134710 | 79 | 231 | 6.0 | 9.0 | 0.00 | 0.00 | 0.00 | ||
| 20260902134309 | 78 | 248 | 9.0 | 13.0 | 0.00 | 0.00 | 0.00 | ||
| 20260902133906 | 79 | 274 | 6.0 | 11.0 | 0.00 | 0.00 | 0.00 |